TimeEST,TemperatureF,Dew PointF,Humidity,Sea Level PressureIn,VisibilityMPH,Wind Direction,Wind SpeedMPH,Gust SpeedMPH,PrecipitationIn,Events,Conditions,WindDirDegrees,DateUTC
12:57 AM,25.0,6.1,45,30.53,10.0,NNE,4.6,-,N/A,,Clear,30,2013-01-25 05:57:00
1:57 AM,24.1,7.0,48,30.53,10.0,North,4.6,-,N/A,,Clear,360,2013-01-25 06:57:00
2:57 AM,23.0,7.0,50,30.53,10.0,North,4.6,-,N/A,,Clear,360,2013-01-25 07:57:00
3:57 AM,21.9,7.0,53,30.53,10.0,North,3.5,-,N/A,,Clear,360,2013-01-25 08:57:00
4:57 AM,21.9,8.1,55,30.52,10.0,North,4.6,-,N/A,,Clear,10,2013-01-25 09:57:00
5:57 AM,21.9,9.0,58,30.52,10.0,North,3.5,-,N/A,,Clear,350,2013-01-25 10:57:00
6:57 AM,24.1,10.0,55,30.52,10.0,North,5.8,-,N/A,,Clear,350,2013-01-25 11:57:00
7:57 AM,25.0,10.9,55,30.50,10.0,North,8.1,-,N/A,,Mostly Cloudy,10,2013-01-25 12:57:00
8:57 AM,28.0,12.0,51,30.50,10.0,North,5.8,-,N/A,,Mostly Cloudy,360,2013-01-25 13:57:00
9:57 AM,33.1,14.0,46,30.48,10.0,North,6.9,-,N/A,,Mostly Cloudy,10,2013-01-25 14:57:00
10:57 AM,36.0,18.0,48,30.46,10.0,Variable,4.6,-,N/A,,Mostly Cloudy,0,2013-01-25 15:57:00
11:57 AM,37.0,24.1,59,30.40,10.0,ESE,4.6,-,N/A,,Overcast,110,2013-01-25 16:57:00
12:57 PM,36.0,23.0,59,30.34,10.0,SE,3.5,-,N/A,,Overcast,130,2013-01-25 17:57:00
1:57 PM,37.0,27.0,67,30.28,10.0,ENE,3.5,-,0.00,Rain,Light Rain,70,2013-01-25 18:57:00
2:57 PM,37.9,25.0,60,30.26,10.0,NNE,5.8,-,N/A,,Overcast,20,2013-01-25 19:57:00
3:44 PM,37.4,24.8,60,30.21,10.0,NE,5.8,-,N/A,,Overcast,50,2013-01-25 20:44:00
3:57 PM,37.0,24.1,59,30.21,10.0,East,6.9,-,N/A,,Overcast,80,2013-01-25 20:57:00
4:21 PM,35.6,24.8,65,30.21,10.0,North,6.9,-,N/A,,Overcast,360,2013-01-25 21:21:00
4:57 PM,33.1,25.0,72,30.20,3.0,North,5.8,-,0.00,Rain,Light Rain,360,2013-01-25 21:57:00
5:52 PM,32.0,28.4,87,30.15,5.0,NNE,3.5,-,0.03,,Overcast,20,2013-01-25 22:52:00
5:57 PM,32.0,28.9,88,30.16,6.0,Calm,Calm,-,0.03,,Overcast,0,2013-01-25 22:57:00
6:57 PM,33.1,30.9,92,30.14,6.0,Calm,Calm,-,0.02,Rain,Light Rain,0,2013-01-25 23:57:00
7:57 PM,33.1,30.9,92,30.14,4.0,NW,4.6,-,0.03,Rain,Light Rain,320,2013-01-26 00:57:00
8:16 PM,33.8,30.2,87,30.13,6.0,NNW,5.8,-,0.00,Rain,Light Rain,330,2013-01-26 01:16:00
8:34 PM,33.8,30.2,87,30.13,6.0,NW,4.6,-,0.00,Rain,Light Rain,320,2013-01-26 01:34:00
8:57 PM,33.1,30.9,92,30.15,7.0,NW,8.1,-,0.00,Rain,Light Rain,320,2013-01-26 01:57:00
9:57 PM,32.0,30.9,96,30.16,5.0,Variable,6.9,-,0.00,,Overcast,0,2013-01-26 02:57:00
10:38 PM,32.0,30.2,93,30.14,5.0,NW,6.9,17.3,N/A,,Overcast,320,2013-01-26 03:38:00
10:57 PM,32.0,30.0,92,30.16,4.0,WNW,4.6,-,N/A,,Overcast,290,2013-01-26 03:57:00
11:57 PM,33.1,30.9,92,30.15,5.0,West,3.5,-,N/A,,Overcast,280,2013-01-26 04:57:00